THY9405 LTAJ-LTFJ

Flight info

Callsign THY9405
Flight time 1h 20m
Altitude 34000
Route POGEN UA17 BELSU UL605 AVCES DCT NEGBU UT329 TOKER
Aircraft A320/M-SDE3FGHIRWY/LB1

Departure

Time 2026-05-04 20:14
Airport Gaziantep Oğuzeli International Airport (LTAJ)

Arrival

Time 2026-05-04 21:34
Airport Istanbul Sabiha Gökçen International Airport (LTFJ)
Time Latitude Longitude Altitude Speed Heading
2026-05-04 19:27 36.94506 37.47768 2299 ft 0 kts 194°
2026-05-04 19:57 36.94517 37.47772 2302 ft 4 kts 194°
2026-05-04 19:58 36.94543 37.47781 2288 ft 4 kts 203°
2026-05-04 19:58 36.94566 37.47798 2291 ft 4 kts 228°
2026-05-04 19:58 36.94576 37.47823 2291 ft 3 kts 282°
2026-05-04 19:58 36.94574 37.47833 2288 ft 0 kts 285°
2026-05-04 20:03 36.94576 37.47820 2294 ft 3 kts 285°
2026-05-04 20:03 36.94583 37.47787 2294 ft 5 kts 284°
2026-05-04 20:03 36.94593 37.47743 2295 ft 5 kts 284°
2026-05-04 20:04 36.94602 37.47698 2288 ft 5 kts 284°
2026-05-04 20:04 36.94610 37.47656 2298 ft 5 kts 284°
2026-05-04 20:04 36.94618 37.47615 2288 ft 5 kts 284°
2026-05-04 20:04 36.94627 37.47573 2291 ft 5 kts 285°
2026-05-04 20:05 36.94648 37.47545 2298 ft 4 kts 338°
2026-05-04 20:05 36.94676 37.47542 2299 ft 5 kts 352°
2026-05-04 20:05 36.94706 37.47510 2289 ft 6 kts 292°
2026-05-04 20:05 36.94717 37.47461 2290 ft 6 kts 285°
2026-05-04 20:06 36.94727 37.47414 2293 ft 5 kts 285°
2026-05-04 20:06 36.94736 37.47370 2287 ft 5 kts 285°
2026-05-04 20:06 36.94745 37.47330 2299 ft 4 kts 285°
2026-05-04 20:06 36.94752 37.47296 2293 ft 4 kts 285°
2026-05-04 20:07 36.94759 37.47260 2287 ft 5 kts 285°
2026-05-04 20:07 36.94770 37.47211 2289 ft 6 kts 285°
2026-05-04 20:07 36.94782 37.47159 2287 ft 6 kts 286°
2026-05-04 20:07 36.94794 37.47105 2287 ft 7 kts 286°
2026-05-04 20:08 36.94807 37.47049 2296 ft 7 kts 286°
2026-05-04 20:08 36.94820 37.46991 2295 ft 7 kts 285°
2026-05-04 20:08 36.94832 37.46934 2293 ft 7 kts 285°
2026-05-04 20:08 36.94844 37.46881 2287 ft 6 kts 285°
2026-05-04 20:09 36.94855 37.46831 2287 ft 6 kts 285°
2026-05-04 20:09 36.94865 37.46784 2287 ft 5 kts 285°
2026-05-04 20:09 36.94875 37.46740 2293 ft 5 kts 285°
2026-05-04 20:09 36.94884 37.46697 2292 ft 5 kts 285°
2026-05-04 20:10 36.94895 37.46646 2297 ft 7 kts 285°
2026-05-04 20:10 36.94910 37.46580 2293 ft 9 kts 285°
2026-05-04 20:10 36.94926 37.46506 2292 ft 9 kts 285°
2026-05-04 20:10 36.94942 37.46427 2293 ft 10 kts 283°
2026-05-04 20:11 36.94959 37.46342 2286 ft 10 kts 284°
2026-05-04 20:11 36.94978 37.46252 2301 ft 11 kts 285°
2026-05-04 20:11 36.95016 37.46177 2286 ft 10 kts 341°
2026-05-04 20:11 36.95062 37.46186 2291 ft 0 kts 19°
2026-05-04 20:12 36.95063 37.46186 2297 ft 1 kts 19°
2026-05-04 20:12 36.95096 37.46198 2281 ft 11 kts 16°
2026-05-04 20:12 36.95146 37.46270 2277 ft 11 kts 88°
2026-05-04 20:12 36.95131 37.46355 2276 ft 9 kts 106°
2026-05-04 20:13 36.95110 37.46446 2277 ft 16 kts 106°
2026-05-04 20:13 36.95024 37.46827 2279 ft 78 kts 105°
2026-05-04 20:13 36.94840 37.47699 2280 ft 130 kts 105°
2026-05-04 20:13 36.94556 37.48956 2345 ft 164 kts 107°
2026-05-04 20:14 36.94265 37.50309 2962 ft 161 kts 108°
2026-05-04 20:14 36.93977 37.51662 3567 ft 162 kts 109°
2026-05-04 20:14 36.93753 37.53053 4102 ft 169 kts 89°
2026-05-04 20:14 36.94293 37.54440 4320 ft 195 kts 40°
2026-05-04 20:15 36.95613 37.55043 4495 ft 213 kts 354°
2026-05-04 20:15 36.96947 37.54307 4777 ft 214 kts 310°
2026-05-04 20:15 36.97964 37.52865 5053 ft 231 kts 304°
2026-05-04 20:15 36.98992 37.51225 5418 ft 248 kts 302°
2026-05-04 20:16 37.00087 37.49439 5936 ft 265 kts 302°
2026-05-04 20:16 37.01219 37.47605 6774 ft 267 kts 302°
2026-05-04 20:16 37.02352 37.45789 7573 ft 270 kts 302°
2026-05-04 20:16 37.03533 37.43908 8342 ft 273 kts 302°
2026-05-04 20:17 37.04717 37.42025 9090 ft 277 kts 302°
2026-05-04 20:17 37.05923 37.40120 9802 ft 281 kts 302°
2026-05-04 20:17 37.07148 37.38186 10367 ft 291 kts 302°
2026-05-04 20:17 37.08447 37.36119 10521 ft 314 kts 302°
2026-05-04 20:18 37.09839 37.33901 10687 ft 333 kts 302°
2026-05-04 20:18 37.11296 37.31589 11177 ft 341 kts 302°
2026-05-04 20:18 37.12778 37.29249 11794 ft 344 kts 302°
2026-05-04 20:18 37.14274 37.26896 12417 ft 347 kts 302°
2026-05-04 20:19 37.15782 37.24519 13048 ft 349 kts 301°
2026-05-04 20:19 37.17296 37.22123 13604 ft 353 kts 301°
2026-05-04 20:19 37.18828 37.19696 14141 ft 357 kts 301°
2026-05-04 20:19 37.20377 37.17244 14646 ft 361 kts 301°
2026-05-04 20:20 37.21943 37.14759 15102 ft 365 kts 301°
2026-05-04 20:20 37.23521 37.12248 15569 ft 369 kts 301°
2026-05-04 20:20 37.25120 37.09697 16035 ft 373 kts 301°
2026-05-04 20:20 37.26733 37.07125 16506 ft 377 kts 301°
2026-05-04 20:21 37.28364 37.04525 16960 ft 381 kts 301°
2026-05-04 20:21 37.30037 37.01925 17439 ft 385 kts 303°
2026-05-04 20:21 37.33563 36.96805 18359 ft 394 kts 304°
2026-05-04 20:22 37.35420 36.94183 18837 ft 398 kts 305°
2026-05-04 20:22 37.37238 36.91612 19306 ft 400 kts 305°
2026-05-04 20:22 37.39087 36.88977 19787 ft 403 kts 305°
2026-05-04 20:22 37.40940 36.86316 20262 ft 405 kts 304°
2026-05-04 20:23 37.42795 36.83633 20696 ft 408 kts 305°
2026-05-04 20:23 37.44656 36.80927 21120 ft 410 kts 305°
2026-05-04 20:23 37.46524 36.78205 21525 ft 413 kts 305°
2026-05-04 20:23 37.47796 36.76350 21785 ft 415 kts 305°
2026-05-04 20:24 37.50305 36.72695 22302 ft 417 kts 305°
2026-05-04 20:24 37.51589 36.70825 22555 ft 419 kts 305°
2026-05-04 20:24 37.53507 36.68035 22928 ft 422 kts 306°
2026-05-04 20:24 37.55434 36.65231 23302 ft 424 kts 306°
2026-05-04 20:25 37.57374 36.62403 23647 ft 427 kts 306°
2026-05-04 20:25 37.59321 36.59564 23986 ft 430 kts 306°
2026-05-04 20:25 37.61279 36.56703 24288 ft 432 kts 306°
2026-05-04 20:25 37.63217 36.53861 24637 ft 434 kts 306°
2026-05-04 20:26 37.65191 36.50966 24977 ft 436 kts 306°
2026-05-04 20:26 37.67167 36.48070 25340 ft 437 kts 306°
2026-05-04 20:26 37.69154 36.45157 25703 ft 438 kts 306°
2026-05-04 20:26 37.71144 36.42243 26074 ft 439 kts 306°
2026-05-04 20:27 37.73139 36.39319 26448 ft 440 kts 306°
2026-05-04 20:27 37.75137 36.36386 26814 ft 441 kts 306°
2026-05-04 20:27 37.77131 36.33450 27188 ft 441 kts 306°
2026-05-04 20:27 37.79125 36.30511 27671 ft 439 kts 306°
2026-05-04 20:28 37.81106 36.27596 28183 ft 436 kts 306°
2026-05-04 20:28 37.83075 36.24697 28683 ft 433 kts 306°
2026-05-04 20:28 37.85030 36.21819 29180 ft 430 kts 306°
2026-05-04 20:28 37.86969 36.18962 29670 ft 427 kts 305°
2026-05-04 20:29 37.88891 36.16121 30153 ft 424 kts 305°
2026-05-04 20:29 37.90799 36.13297 30609 ft 420 kts 305°
2026-05-04 20:29 37.92693 36.10485 31051 ft 419 kts 305°
2026-05-04 20:29 37.94580 36.07680 31451 ft 418 kts 304°
2026-05-04 20:30 37.96467 36.04878 31826 ft 417 kts 304°
2026-05-04 20:30 37.98347 36.02087 32201 ft 417 kts 304°
2026-05-04 20:30 38.00229 35.99291 32562 ft 416 kts 304°
2026-05-04 20:30 38.02102 35.96502 32952 ft 415 kts 304°
2026-05-04 20:31 38.03970 35.93717 33334 ft 414 kts 304°
2026-05-04 20:31 38.05833 35.90935 33672 ft 414 kts 304°
2026-05-04 20:31 38.07696 35.88152 33864 ft 414 kts 304°
2026-05-04 20:31 38.09574 35.85340 33907 ft 420 kts 304°
2026-05-04 20:32 38.13409 35.79592 33912 ft 431 kts 304°
2026-05-04 20:32 38.17330 35.73795 33908 ft 434 kts 305°
2026-05-04 20:33 38.21343 35.68042 33905 ft 435 kts 306°
2026-05-04 20:33 38.25358 35.62287 33902 ft 435 kts 306°
2026-05-04 20:34 38.29352 35.56514 33889 ft 435 kts 306°
2026-05-04 20:34 38.33344 35.50720 33891 ft 436 kts 306°
2026-05-04 20:35 38.37335 35.44907 33892 ft 436 kts 306°
2026-05-04 20:35 38.41331 35.39074 33885 ft 436 kts 306°
2026-05-04 20:36 38.45323 35.33242 33886 ft 437 kts 307°
2026-05-04 20:36 38.49295 35.27435 33881 ft 438 kts 307°
2026-05-04 20:37 38.53322 35.21528 33886 ft 438 kts 307°
2026-05-04 20:37 38.57277 35.15598 33884 ft 438 kts 306°
2026-05-04 20:38 38.61197 35.09619 33892 ft 439 kts 307°
2026-05-04 20:38 38.65126 35.03633 33890 ft 440 kts 307°
2026-05-04 20:39 38.69050 34.97690 33899 ft 440 kts 307°
2026-05-04 20:39 38.72996 34.91704 33903 ft 441 kts 307°
2026-05-04 20:40 38.76945 34.85695 33905 ft 441 kts 308°
2026-05-04 20:40 38.80896 34.79676 33912 ft 441 kts 308°
2026-05-04 20:41 38.84833 34.73646 33912 ft 441 kts 308°
2026-05-04 20:41 38.88771 34.67604 33914 ft 441 kts 308°
2026-05-04 20:42 38.92713 34.61564 33916 ft 441 kts 308°
2026-05-04 20:42 38.96655 34.55506 33913 ft 442 kts 308°
2026-05-04 20:43 39.00594 34.49436 33912 ft 442 kts 308°
2026-05-04 20:43 39.04527 34.43356 33911 ft 442 kts 308°
2026-05-04 20:44 39.08461 34.37264 33915 ft 443 kts 309°
2026-05-04 20:44 39.12104 34.30879 33911 ft 443 kts 299°
2026-05-04 20:45 39.15746 34.24491 33907 ft 444 kts 309°
2026-05-04 20:45 39.19727 34.18385 33905 ft 445 kts 310°
2026-05-04 20:46 39.23701 34.12261 33907 ft 446 kts 310°
2026-05-04 20:46 39.27683 34.06104 33907 ft 447 kts 310°
2026-05-04 20:47 39.31660 33.99921 33907 ft 448 kts 310°
2026-05-04 20:47 39.35649 33.93729 33931 ft 448 kts 311°
2026-05-04 20:48 39.39647 33.87568 33949 ft 447 kts 312°
2026-05-04 20:48 39.43628 33.81406 33953 ft 446 kts 311°
2026-05-04 20:49 39.47584 33.75218 33937 ft 446 kts 311°
2026-05-04 20:49 39.51481 33.68959 33933 ft 446 kts 311°
2026-05-04 20:50 39.55255 33.62579 33932 ft 448 kts 304°
2026-05-04 20:50 39.58078 33.55338 33931 ft 450 kts 298°
2026-05-04 20:51 39.60799 33.48037 33949 ft 450 kts 298°
2026-05-04 20:51 39.63529 33.40731 33944 ft 449 kts 299°
2026-05-04 20:52 39.66247 33.33442 33952 ft 448 kts 299°
2026-05-04 20:52 39.68948 33.26163 33958 ft 447 kts 299°
2026-05-04 20:53 39.71644 33.18883 33957 ft 446 kts 299°
2026-05-04 20:53 39.74315 33.11628 33957 ft 444 kts 300°
2026-05-04 20:54 39.76984 33.04393 33965 ft 443 kts 300°
2026-05-04 20:54 39.79638 32.97177 33964 ft 442 kts 300°
2026-05-04 20:55 39.82256 32.90024 33969 ft 440 kts 301°
2026-05-04 20:55 39.84875 32.82844 33966 ft 439 kts 301°
2026-05-04 20:56 39.87506 32.75637 33974 ft 437 kts 301°
2026-05-04 20:56 39.90103 32.68494 33968 ft 436 kts 302°
2026-05-04 20:57 39.92666 32.61415 33965 ft 434 kts 302°
2026-05-04 20:57 39.95254 32.54265 33968 ft 433 kts 302°
2026-05-04 20:58 39.97773 32.47288 33908 ft 419 kts 303°
2026-05-04 20:58 39.99014 32.43824 33628 ft 414 kts 303°
2026-05-04 20:58 40.00230 32.40437 33353 ft 411 kts 303°
2026-05-04 20:59 40.01360 32.37051 33081 ft 417 kts 298°
2026-05-04 20:59 40.02167 32.33366 32804 ft 425 kts 294°
2026-05-04 20:59 40.02903 32.29617 32529 ft 427 kts 295°
2026-05-04 20:59 40.03636 32.25861 32252 ft 428 kts 295°
2026-05-04 21:00 40.04368 32.22083 31973 ft 429 kts 295°
2026-05-04 21:00 40.05095 32.18311 31703 ft 430 kts 295°
2026-05-04 21:00 40.05822 32.14520 31435 ft 430 kts 295°
2026-05-04 21:00 40.06546 32.10737 31152 ft 430 kts 295°
2026-05-04 21:01 40.07271 32.06948 30870 ft 430 kts 296°
2026-05-04 21:01 40.07993 32.03167 30598 ft 431 kts 296°
2026-05-04 21:01 40.08729 31.99314 30327 ft 432 kts 296°
2026-05-04 21:01 40.09448 31.95560 30058 ft 432 kts 296°
2026-05-04 21:02 40.10174 31.91753 29782 ft 433 kts 296°
2026-05-04 21:02 40.10899 31.87923 29508 ft 434 kts 296°
2026-05-04 21:02 40.11621 31.84093 29232 ft 434 kts 296°
2026-05-04 21:02 40.12345 31.80258 28955 ft 435 kts 296°
2026-05-04 21:03 40.13073 31.76427 28680 ft 435 kts 296°
2026-05-04 21:03 40.13800 31.72584 28400 ft 435 kts 296°
2026-05-04 21:03 40.14501 31.68735 28125 ft 435 kts 295°
2026-05-04 21:03 40.15153 31.64876 27852 ft 435 kts 295°
2026-05-04 21:04 40.15773 31.61022 27578 ft 433 kts 294°
2026-05-04 21:04 40.16483 31.57241 27297 ft 417 kts 303°
2026-05-04 21:04 40.17751 31.53963 27046 ft 395 kts 315°
2026-05-04 21:04 40.19221 31.50935 26965 ft 394 kts 315°
2026-05-04 21:05 40.20681 31.47913 26988 ft 395 kts 315°
2026-05-04 21:05 40.22147 31.44874 26988 ft 395 kts 314°
2026-05-04 21:05 40.23618 31.41821 26989 ft 397 kts 314°
2026-05-04 21:05 40.25085 31.38757 26990 ft 398 kts 314°
2026-05-04 21:06 40.26557 31.35684 26976 ft 399 kts 314°
2026-05-04 21:06 40.28028 31.32603 26721 ft 398 kts 315°
2026-05-04 21:06 40.29490 31.29531 26480 ft 397 kts 314°
2026-05-04 21:06 40.30946 31.26466 26226 ft 396 kts 314°
2026-05-04 21:07 40.32399 31.23402 25973 ft 395 kts 315°
2026-05-04 21:07 40.33847 31.20354 25723 ft 394 kts 315°
2026-05-04 21:07 40.35296 31.17306 25477 ft 393 kts 315°
2026-05-04 21:07 40.36739 31.14272 25227 ft 391 kts 315°
2026-05-04 21:08 40.37691 31.12270 25063 ft 390 kts 315°
2026-05-04 21:08 40.39586 31.08284 24726 ft 388 kts 315°
2026-05-04 21:08 40.40545 31.06267 24559 ft 387 kts 315°
2026-05-04 21:08 40.41968 31.03264 24303 ft 386 kts 315°
2026-05-04 21:09 40.43384 31.00274 24055 ft 385 kts 315°
2026-05-04 21:09 40.45252 30.96335 23728 ft 383 kts 315°
2026-05-04 21:09 40.46206 30.94331 23546 ft 383 kts 315°
2026-05-04 21:09 40.47613 30.91368 23298 ft 381 kts 315°
2026-05-04 21:10 40.49009 30.88419 23051 ft 380 kts 314°
2026-05-04 21:10 40.50399 30.85468 22795 ft 378 kts 314°
2026-05-04 21:10 40.51763 30.82550 22539 ft 371 kts 314°
2026-05-04 21:10 40.53096 30.79684 22294 ft 364 kts 314°
2026-05-04 21:11 40.54403 30.76877 22043 ft 357 kts 314°
2026-05-04 21:11 40.55691 30.74124 21791 ft 350 kts 315°
2026-05-04 21:11 40.56958 30.71421 21540 ft 344 kts 315°
2026-05-04 21:11 40.58199 30.68772 21291 ft 336 kts 315°
2026-05-04 21:12 40.59405 30.66192 21036 ft 327 kts 315°
2026-05-04 21:12 40.60591 30.63662 20780 ft 322 kts 315°
2026-05-04 21:12 40.61755 30.61182 20515 ft 316 kts 315°
2026-05-04 21:12 40.62892 30.58761 20148 ft 315 kts 315°
2026-05-04 21:13 40.64053 30.56285 19769 ft 314 kts 314°
2026-05-04 21:13 40.65183 30.53872 19373 ft 313 kts 314°
2026-05-04 21:13 40.66325 30.51429 18988 ft 313 kts 314°
2026-05-04 21:13 40.67478 30.48960 18579 ft 312 kts 313°
2026-05-04 21:14 40.68616 30.46520 18169 ft 312 kts 313°
2026-05-04 21:14 40.69735 30.44118 17761 ft 312 kts 313°
2026-05-04 21:14 40.70883 30.41649 17330 ft 313 kts 312°
2026-05-04 21:14 40.72004 30.39234 16907 ft 313 kts 312°
2026-05-04 21:15 40.73135 30.36790 16477 ft 313 kts 312°
2026-05-04 21:15 40.74272 30.34338 16050 ft 313 kts 311°
2026-05-04 21:15 40.75405 30.31896 15618 ft 313 kts 312°
2026-05-04 21:15 40.76540 30.29451 15164 ft 312 kts 311°
2026-05-04 21:16 40.77672 30.27004 14730 ft 312 kts 311°
2026-05-04 21:16 40.78804 30.24554 14284 ft 313 kts 311°
2026-05-04 21:16 40.79933 30.22103 13835 ft 313 kts 311°
2026-05-04 21:16 40.81066 30.19644 13385 ft 313 kts 310°
2026-05-04 21:17 40.82197 30.17192 12930 ft 312 kts 310°
2026-05-04 21:17 40.83323 30.14744 12484 ft 311 kts 310°
2026-05-04 21:17 40.84442 30.12306 12037 ft 311 kts 310°
2026-05-04 21:17 40.85564 30.09858 11555 ft 312 kts 309°
2026-05-04 21:18 40.86684 30.07412 11124 ft 311 kts 309°
2026-05-04 21:18 40.87784 30.05006 10982 ft 299 kts 309°
2026-05-04 21:18 40.88826 30.02718 11003 ft 284 kts 309°
2026-05-04 21:18 40.89816 30.00540 11003 ft 270 kts 309°
2026-05-04 21:19 40.90758 29.98467 11004 ft 256 kts 310°
2026-05-04 21:19 40.91651 29.96503 11006 ft 242 kts 311°
2026-05-04 21:19 40.92497 29.94646 11004 ft 229 kts 312°
2026-05-04 21:19 40.93301 29.92886 11005 ft 220 kts 312°
2026-05-04 21:20 40.94096 29.91164 11005 ft 219 kts 313°
2026-05-04 21:20 40.94893 29.89438 10808 ft 219 kts 313°
2026-05-04 21:20 40.95678 29.87728 10589 ft 216 kts 312°
2026-05-04 21:20 40.96455 29.86033 10314 ft 215 kts 312°
2026-05-04 21:21 40.97229 29.84343 10075 ft 214 kts 311°
2026-05-04 21:21 40.97996 29.82669 9858 ft 211 kts 311°
2026-05-04 21:21 40.98755 29.81011 9571 ft 210 kts 311°
2026-05-04 21:21 40.99508 29.79364 9336 ft 208 kts 311°
2026-05-04 21:22 41.00249 29.77732 9109 ft 206 kts 310°
2026-05-04 21:22 41.00981 29.76116 8860 ft 204 kts 310°
2026-05-04 21:22 41.01707 29.74516 8592 ft 202 kts 310°
2026-05-04 21:22 41.02431 29.72923 8303 ft 202 kts 310°
2026-05-04 21:23 41.03154 29.71333 8018 ft 201 kts 310°
2026-05-04 21:23 41.03878 29.69742 7673 ft 202 kts 310°
2026-05-04 21:23 41.04820 29.68459 7376 ft 190 kts 336°
2026-05-04 21:23 41.06083 29.68088 7062 ft 189 kts
2026-05-04 21:24 41.07334 29.68684 6769 ft 199 kts 30°
2026-05-04 21:24 41.08183 29.70201 6437 ft 219 kts 62°
2026-05-04 21:24 41.08167 29.72311 6105 ft 247 kts 103°
2026-05-04 21:24 41.07359 29.74374 5769 ft 256 kts 113°
2026-05-04 21:25 41.06402 29.76375 5486 ft 259 kts 115°
2026-05-04 21:25 41.05408 29.78357 5222 ft 258 kts 115°
2026-05-04 21:25 41.04219 29.80137 5070 ft 264 kts 144°
2026-05-04 21:25 41.02471 29.80801 4941 ft 265 kts 186°
2026-05-04 21:26 41.00797 29.80019 4829 ft 250 kts 229°
2026-05-04 21:26 40.99914 29.78256 4685 ft 223 kts 270°
2026-05-04 21:26 41.00105 29.76407 4564 ft 195 kts 311°
2026-05-04 21:26 41.00946 29.74990 4440 ft 195 kts 316°
2026-05-04 21:27 41.01781 29.73554 4242 ft 197 kts 314°
2026-05-04 21:27 41.02477 29.72000 4169 ft 206 kts 298°
2026-05-04 21:27 41.02718 29.70098 4127 ft 214 kts 277°
2026-05-04 21:27 41.02352 29.68178 4069 ft 218 kts 255°
2026-05-04 21:28 41.01696 29.66382 4017 ft 216 kts 254°
2026-05-04 21:28 41.01044 29.64596 3969 ft 215 kts 255°
2026-05-04 21:28 41.00402 29.62833 3939 ft 207 kts 254°
2026-05-04 21:28 40.99797 29.61184 3893 ft 191 kts 255°
2026-05-04 21:29 40.99239 29.59657 3840 ft 177 kts 256°
2026-05-04 21:29 40.98717 29.58218 3796 ft 171 kts 257°
2026-05-04 21:29 40.98205 29.56807 3766 ft 169 kts 257°
2026-05-04 21:29 40.97699 29.55415 3721 ft 167 kts 257°
2026-05-04 21:30 40.97200 29.54053 3716 ft 161 kts 258°
2026-05-04 21:30 40.96718 29.52729 3674 ft 159 kts 258°
2026-05-04 21:30 40.96237 29.51410 3550 ft 158 kts 257°
2026-05-04 21:30 40.95760 29.50103 3351 ft 158 kts 258°
2026-05-04 21:31 40.94805 29.47486 2892 ft 158 kts 256°
2026-05-04 21:31 40.94330 29.46191 2639 ft 156 kts 254°
2026-05-04 21:31 40.93861 29.44912 2415 ft 152 kts 254°
2026-05-04 21:32 40.93407 29.43673 2180 ft 148 kts 253°
2026-05-04 21:32 40.92964 29.42464 1956 ft 144 kts 251°
2026-05-04 21:32 40.92533 29.41286 1728 ft 140 kts 250°
2026-05-04 21:32 40.92112 29.40137 1512 ft 138 kts 250°
2026-05-04 21:33 40.91695 29.38998 1299 ft 137 kts 250°
2026-05-04 21:33 40.91277 29.37860 1088 ft 138 kts 249°
2026-05-04 21:33 40.90859 29.36719 877 ft 138 kts 249°
2026-05-04 21:33 40.90441 29.35582 662 ft 137 kts 249°
2026-05-04 21:34 40.90023 29.34445 464 ft 138 kts 248°
2026-05-04 21:34 40.89610 29.33323 329 ft 138 kts 247°
2026-05-04 21:34 40.89245 29.32322 303 ft 85 kts 243°
2026-05-04 21:34 40.89116 29.31960 308 ft 20 kts 258°
2026-05-04 21:35 40.89119 29.31773 307 ft 18 kts 271°
2026-05-04 21:35 40.89120 29.31759 307 ft 0 kts 276°
2026-05-04 21:36 40.89120 29.31755 307 ft 1 kts 276°
2026-05-04 21:36 40.89123 29.31730 307 ft 4 kts 276°
2026-05-04 21:36 40.89127 29.31679 307 ft 7 kts 276°
2026-05-04 21:36 40.89147 29.31612 306 ft 9 kts 320°
2026-05-04 21:37 40.89202 29.31632 306 ft 10 kts 59°
2026-05-04 21:37 40.89235 29.31723 308 ft 12 kts 64°
2026-05-04 21:37 40.89275 29.31831 307 ft 14 kts 64°
2026-05-04 21:37 40.89321 29.31958 307 ft 16 kts 64°
2026-05-04 21:38 40.89375 29.32104 306 ft 19 kts 64°
2026-05-04 21:38 40.89433 29.32259 307 ft 14 kts 63°
2026-05-04 21:38 40.89453 29.32310 306 ft 0 kts 64°
2026-05-04 21:38 40.89455 29.32317 307 ft 2 kts 64°
2026-05-04 21:39 40.89464 29.32340 307 ft 4 kts 64°
2026-05-04 21:39 40.89479 29.32381 307 ft 6 kts 65°
2026-05-04 21:39 40.89498 29.32439 307 ft 8 kts 66°
2026-05-04 21:39 40.89524 29.32515 307 ft 11 kts 65°
2026-05-04 21:40 40.89560 29.32617 308 ft 14 kts 63°
2026-05-04 21:40 40.89607 29.32741 307 ft 16 kts 63°
2026-05-04 21:40 40.89663 29.32885 306 ft 19 kts 63°
2026-05-04 21:40 40.89725 29.33056 304 ft 22 kts 64°
2026-05-04 21:41 40.89797 29.33253 303 ft 25 kts 63°
2026-05-04 21:41 40.89878 29.33462 304 ft 26 kts 63°
2026-05-04 21:41 40.89937 29.33619 309 ft 17 kts 65°
2026-05-04 21:41 40.89985 29.33759 314 ft 16 kts 65°
2026-05-04 21:42 40.90017 29.33897 317 ft 15 kts 110°
2026-05-04 21:42 40.89923 29.33970 317 ft 16 kts 153°
2026-05-04 21:42 40.89838 29.33943 319 ft 16 kts 244°
2026-05-04 21:42 40.89787 29.33793 315 ft 20 kts 244°
2026-05-04 21:43 40.89719 29.33604 309 ft 25 kts 245°
2026-05-04 21:43 40.89638 29.33374 303 ft 29 kts 245°
2026-05-04 21:43 40.89558 29.33150 303 ft 28 kts 244°
2026-05-04 21:43 40.89483 29.32945 301 ft 22 kts 242°
2026-05-04 21:44 40.89405 29.32754 300 ft 25 kts 244°
2026-05-04 21:44 40.89329 29.32544 301 ft 27 kts 245°
2026-05-04 21:44 40.89244 29.32319 303 ft 27 kts 244°
2026-05-04 21:44 40.89161 29.32089 305 ft 28 kts 245°
2026-05-04 21:45 40.89120 29.31886 309 ft 22 kts 266°
2026-05-04 21:45 40.89125 29.31675 307 ft 24 kts 277°
2026-05-04 21:45 40.89197 29.31623 305 ft 15 kts 55°
2026-05-04 21:45 40.89244 29.31714 306 ft 11 kts 333°
2026-05-04 21:46 40.89220 29.31619 306 ft 13 kts 241°
2026-05-04 21:46 40.89178 29.31503 306 ft 15 kts 261°
2026-05-04 21:46 40.89240 29.31435 306 ft 15 kts 34°
2026-05-04 21:46 40.89345 29.31440 306 ft 17 kts 337°
2026-05-04 21:47 40.89452 29.31364 308 ft 17 kts 335°
2026-05-04 21:47 40.89559 29.31297 313 ft 17 kts 331°
2026-05-04 21:47 40.89664 29.31227 315 ft 18 kts 334°
2026-05-04 21:47 40.89752 29.31143 316 ft 16 kts 272°
2026-05-04 21:48 40.89704 29.31007 321 ft 15 kts 243°
2026-05-04 21:48 40.89654 29.30873 318 ft 18 kts 244°
2026-05-04 21:48 40.89651 29.30737 321 ft 16 kts 324°
2026-05-04 21:48 40.89752 29.30672 323 ft 16 kts 333°
2026-05-04 21:49 40.89820 29.30556 321 ft 18 kts 268°
2026-05-04 21:49 40.89861 29.30432 320 ft 14 kts 351°
2026-05-04 21:49 40.89920 29.30522 321 ft 15 kts 71°
2026-05-04 21:49 40.89968 29.30652 321 ft 17 kts 64°
2026-05-04 21:50 40.90021 29.30801 321 ft 19 kts 65°
2026-05-04 21:50 40.90091 29.30944 321 ft 16 kts 15°
2026-05-04 21:50 40.90196 29.30893 321 ft 17 kts 348°
2026-05-04 21:50 40.90274 29.30993 320 ft 17 kts 44°
2026-05-04 21:51 40.90338 29.31136 320 ft 19 kts 64°
2026-05-04 21:51 40.90400 29.31304 321 ft 21 kts 64°
2026-05-04 21:51 40.90465 29.31479 321 ft 21 kts 64°
2026-05-04 21:51 40.90521 29.31630 319 ft 16 kts 63°
2026-05-04 21:52 40.90576 29.31683 321 ft 10 kts 351°
2026-05-04 21:52 40.90628 29.31653 321 ft 0 kts 334°